Precipitable_Water
1.07 1.06 1.00 0.98 0.97 0.92 0.88 0.89 0.94 1.00 1.03 1.05 1.10 1.13 1.13 1.14 1.17 1.18 1.17 1.21 1.19 1.22 1.24 1.19 1.18 1.25 1.24 1.27 1.26 1.24 1.19 1.12 0.99 1.04 1.10 1.14 1.14 1.13 1.16 1.17 1.19 1.19 1.20
1.06 1.01 0.96 0.96 0.91 0.91 0.89 0.91 0.95 0.98 1.03 1.04 1.05 1.05 1.08 1.11 1.17 1.18 1.17 1.22 1.25 1.18 1.18 1.17 1.14 1.22 1.26 1.27 1.26 1.21 1.17 1.17 1.07 0.99 1.06 1.08 1.09 1.12 1.11 1.11 1.12 1.14 1.14
1.04 0.99 0.95 0.92 0.92 0.89 0.91 0.93 0.94 0.95 1.00 1.03 1.02 1.01 1.04 1.12 1.16 1.19 1.20 1.21 1.24 1.22 1.17 1.15 1.15 1.21 1.19 1.21 1.24 1.20 1.18 1.16 1.12 1.04 1.01 1.07 1.07 1.08 1.05 1.06 1.05 1.06 1.08
1.02 0.96 0.92 0.93 0.90 0.85 0.86 0.90 0.93 1.02 1.09 1.07 1.05 1.04 1.05 1.14 1.20 1.20 1.19 1.19 1.18 1.12 1.14 1.16 1.16 1.13 1.14 1.19 1.19 1.17 1.16 1.10 1.08 1.05 1.00 0.99 1.00 1.01 0.98 0.88 0.84 0.89 0.83
0.98 0.93 0.91 0.88 0.85 0.85 0.90 0.96 1.04 1.11 1.11 1.04 1.00 1.01 1.06 1.12 1.14 1.19 1.18 1.12 1.09 1.07 1.10 1.13 1.17 1.19 1.21 1.23 1.19 1.16 1.12 1.08 1.04 0.97 0.96 0.90 0.82 0.75 0.67 0.65 0.57 0.55 0.55
0.92 0.88 0.86 0.83 0.86 0.91 0.96 1.01 1.03 1.12 1.09 1.06 1.02 1.03 1.07 1.06 1.15 1.16 1.13 1.09 1.07 1.07 1.09 1.18 1.23 1.23 1.23 1.22 1.19 1.18 1.13 1.02 0.87 0.77 0.69 0.57 0.49 0.48 0.45 0.42 0.40 0.38 0.35
0.91 0.88 0.86 0.85 0.89 0.93 0.98 1.00 1.05 1.12 1.11 1.07 1.07 1.10 1.02 1.09 1.16 1.16 1.15 1.10 1.09 1.11 1.11 1.09 1.08 1.08 1.06 1.00 0.93 0.87 0.82 0.76 0.68 0.53 0.43 0.38 0.35 0.35 0.35 0.33 0.34 0.34 0.34
0.88 0.85 0.85 0.88 0.89 0.95 0.99 0.99 1.05 1.12 1.09 1.09 1.14 1.16 1.16 1.18 1.21 1.17 1.14 1.09 1.03 0.95 0.91 0.89 0.83 0.76 0.74 0.69 0.60 0.52 0.46 0.42 0.39 0.37 0.34 0.34 0.34 0.36 0.33 0.32 0.32 0.31 0.31
0.84 0.84 0.85 0.90 0.91 0.95 0.96 0.99 1.06 1.08 1.10 1.12 1.13 1.12 1.10 1.05 1.02 0.99 0.95 0.81 0.77 0.75 0.75 0.72 0.61 0.49 0.43 0.41 0.36 0.35 0.37 0.39 0.44 0.43 0.43 0.41 0.38 0.34 0.29 0.24 0.21 0.21 0.21
0.86 0.84 0.89 0.93 0.95 0.95 0.97 1.02 1.06 1.10 1.11 1.11 1.08 1.04 0.97 0.91 0.94 0.87 0.83 0.75 0.69 0.65 0.59 0.42 0.39 0.40 0.40 0.40 0.36 0.35 0.32 0.35 0.36 0.35 0.32 0.29 0.26 0.27 0.27 0.25 0.23 0.19 0.20
0.90 0.88 0.93 0.95 0.96 1.00 0.99 1.03 1.01 0.97 0.98 0.93 0.95 0.89 0.89 0.85 0.84 0.79 0.76 0.66 0.56 0.43 0.38 0.41 0.44 0.45 0.44 0.42 0.39 0.34 0.33 0.34 0.30 0.26 0.25 0.25 0.26 0.25 0.26 0.28 0.28 0.26 0.23
0.91 0.89 0.93 0.95 0.97 0.99 0.96 0.92 0.97 0.93 0.85 0.80 0.79 0.80 0.81 0.78 0.76 0.73 0.64 0.49 0.41 0.36 0.39 0.43 0.47 0.46 0.45 0.42 0.39 0.36 0.32 0.27 0.25 0.24 0.23 0.21 0.22 0.23 0.25 0.26 0.28 0.31 0.33
0.90 0.89 0.93 0.95 0.97 0.95 0.88 0.88 0.86 0.81 0.78 0.73 0.73 0.71 0.69 0.68 0.67 0.56 0.43 0.39 0.41 0.40 0.44 0.47 0.46 0.44 0.40 0.36 0.33 0.29 0.26 0.24 0.23 0.20 0.20 0.21 0.24 0.27 0.27 0.27 0.28 0.31 0.32
0.88 0.88 0.92 0.92 0.92 0.88 0.84 0.83 0.81 0.75 0.71 0.70 0.65 0.63 0.60 0.60 0.50 0.43 0.41 0.45 0.46 0.46 0.44 0.40 0.37 0.34 0.32 0.28 0.22 0.22 0.22 0.22 0.21 0.20 0.21 0.23 0.26 0.26 0.25 0.27 0.26 0.26 0.26
0.88 0.88 0.90 0.92 0.90 0.79 0.77 0.78 0.79 0.77 0.75 0.67 0.63 0.59 0.53 0.45 0.41 0.40 0.42 0.41 0.42 0.40 0.37 0.32 0.27 0.24 0.19 0.18 0.19 0.21 0.21 0.22 0.21 0.23 0.23 0.23 0.24 0.25 0.25 0.26 0.25 0.22 0.20
0.86 0.86 0.89 0.89 0.88 0.71 0.70 0.73 0.80 0.78 0.76 0.73 0.66 0.59 0.52 0.45 0.43 0.44 0.44 0.43 0.42 0.38 0.30 0.24 0.22 0.17 0.16 0.17 0.18 0.19 0.21 0.22 0.23 0.24 0.24 0.24 0.24 0.24 0.23 0.23 0.23 0.22 0.20
0.87 0.87 0.89 0.89 0.80 0.62 0.64 0.67 0.64 0.69 0.73 0.69 0.63 0.55 0.45 0.40 0.41 0.43 0.43 0.42 0.40 0.35 0.26 0.22 0.18 0.17 0.17 0.19 0.19 0.20 0.21 0.24 0.26 0.25 0.25 0.25 0.25 0.22 0.21 0.21 0.22 0.23 0.21
0.91 0.92 0.89 0.87 0.70 0.59 0.61 0.65 0.64 0.59 0.54 0.51 0.52 0.44 0.39 0.37 0.40 0.45 0.45 0.43 0.35 0.30 0.25 0.21 0.18 0.18 0.18 0.19 0.20 0.22 0.23 0.25 0.26 0.26 0.26 0.25 0.23 0.22 0.22 0.22 0.22 0.21 0.19
0.92 0.91 0.90 0.87 0.67 0.56 0.60 0.63 0.61 0.56 0.47 0.42 0.44 0.41 0.38 0.38 0.42 0.46 0.44 0.38 0.31 0.26 0.23 0.21 0.20 0.19 0.20 0.21 0.22 0.24 0.24 0.26 0.27 0.27 0.26 0.24 0.23 0.23 0.22 0.23 0.22 0.20 0.19
0.96 0.92 0.91 0.86 0.66 0.54 0.57 0.59 0.56 0.51 0.42 0.41 0.40 0.36 0.37 0.37 0.37 0.40 0.41 0.40 0.35 0.29 0.24 0.22 0.22 0.21 0.21 0.21 0.23 0.24 0.25 0.27 0.28 0.27 0.25 0.24 0.24 0.24 0.23 0.22 0.20 0.19 0.20
0.97 0.93 0.90 0.87 0.68 0.58 0.54 0.56 0.53 0.48 0.41 0.40 0.37 0.37 0.34 0.31 0.35 0.40 0.40 0.40 0.38 0.34 0.25 0.23 0.23 0.22 0.22 0.22 0.23 0.24 0.25 0.27 0.28 0.26 0.24 0.24 0.24 0.23 0.23 0.22 0.21 0.22 0.23
0.99 0.94 0.90 0.87 0.73 0.61 0.57 0.55 0.51 0.47 0.42 0.39 0.36 0.37 0.35 0.31 0.33 0.40 0.42 0.42 0.41 0.39 0.33 0.26 0.24 0.23 0.22 0.22 0.23 0.24 0.25 0.26 0.27 0.26 0.25 0.25 0.23 0.23 0.23 0.22 0.22 0.23 0.23
1.00 0.95 0.91 0.87 0.78 0.65 0.62 0.57 0.52 0.47 0.42 0.38 0.35 0.35 0.34 0.30 0.31 0.37 0.43 0.44 0.43 0.41 0.38 0.28 0.25 0.23 0.24 0.25 0.26 0.26 0.25 0.25 0.27 0.27 0.25 0.24 0.23 0.23 0.23 0.22 0.22 0.22 0.23
0.98 0.97 0.91 0.88 0.82 0.69 0.63 0.61 0.52 0.50 0.44 0.36 0.34 0.33 0.31 0.29 0.30 0.35 0.40 0.43 0.42 0.41 0.40 0.34 0.26 0.24 0.23 0.25 0.27 0.28 0.28 0.28 0.29 0.27 0.26 0.25 0.23 0.23 0.23 0.22 0.22 0.22 0.23
0.95 0.96 0.94 0.88 0.84 0.71 0.63 0.64 0.57 0.50 0.46 0.36 0.33 0.31 0.30 0.29 0.29 0.32 0.36 0.38 0.39 0.38 0.39 0.38 0.28 0.25 0.24 0.25 0.26 0.27 0.28 0.29 0.29 0.27 0.27 0.26 0.24 0.24 0.23 0.22 0.22 0.22 0.23
0.91 0.93 0.94 0.91 0.86 0.78 0.66 0.63 0.60 0.52 0.44 0.37 0.33 0.31 0.29 0.29 0.29 0.31 0.32 0.34 0.36 0.37 0.37 0.38 0.31 0.25 0.24 0.25 0.26 0.27 0.28 0.29 0.28 0.28 0.27 0.26 0.24 0.24 0.24 0.23 0.23 0.22 0.22
Wind_Speed
22 22 20 18 16 15 13 12 11 11 11 11 11 11 12 12 13 13 12 11 12 11 10 10 10 9 10 10 10 10 10 11 10 9 10 10 10 11 13 15 16 17 16
20 20 19 17 16 14 13 12 11 11 11 12 11 11 11 11 12 13 13 11 11 10 10 10 10 10 9 9 9 9 10 9 8 8 10 11 12 13 14 16 16 16 18
20 19 18 16 15 13 12 11 10 10 11 10 10 10 10 10 10 10 12 11 10 9 8 9 9 10 10 10 11 9 10 9 8 8 8 10 12 14 15 17 18 20 22
19 19 17 16 14 13 11 10 9 8 7 6 6 6 7 8 9 9 12 10 9 8 7 8 9 10 9 8 7 8 8 9 9 9 11 12 14 16 17 18 19 20 21
19 19 17 15 14 12 10 8 6 5 5 4 2 2 3 5 8 10 11 9 7 5 6 8 8 7 6 5 6 6 7 8 8 10 13 14 14 15 17 18 18 19 20
20 18 17 16 14 12 10 8 6 6 7 5 4 5 6 7 10 11 10 8 5 2 1 0 2 4 4 5 3 3 5 7 9 11 12 13 14 15 16 17 18 19 20
20 18 17 16 15 13 10 8 8 8 8 8 7 8 10 11 11 10 10 9 7 6 7 8 8 7 6 3 1 1 3 5 7 9 10 12 14 16 17 18 19 19 20
21 19 18 17 15 14 11 10 9 10 10 9 10 11 12 13 14 13 14 12 11 9 9 8 7 6 5 4 3 3 4 6 8 9 11 12 14 15 16 17 18 18 20
21 20 19 18 16 15 13 12 12 12 13 13 13 13 14 14 15 14 13 11 10 9 9 8 7 6 5 4 4 5 7 8 9 10 11 12 13 15 17 18 18 19 20
21 21 19 19 17 16 15 14 14 14 15 15 14 13 14 14 14 13 11 10 10 9 9 8 7 6 6 6 7 7 8 9 10 11 12 13 15 16 18 19 19 20 21
22 21 20 20 19 18 17 17 16 15 15 14 14 13 14 13 12 11 10 9 10 9 8 7 6 7 7 8 9 9 9 10 10 11 12 14 16 17 19 20 21 22 23
23 22 21 21 20 19 19 17 16 16 15 14 14 15 13 12 11 10 10 10 10 8 7 6 6 7 9 9 10 10 10 10 11 12 13 15 17 19 20 22 23 23 23
23 22 22 21 20 20 20 18 17 16 15 15 15 14 13 11 10 10 11 10 9 7 6 7 8 9 10 10 11 10 10 11 12 14 15 17 19 20 22 24 25 25 26
23 23 22 22 21 21 20 18 18 16 16 15 16 15 13 11 10 10 10 9 8 7 7 7 8 9 10 10 11 11 12 13 14 15 17 18 20 22 24 26 27 28 29
23 23 23 22 22 21 20 19 18 16 16 17 16 15 13 11 11 11 9 8 6 6 6 7 8 9 10 11 12 12 13 15 16 17 18 20 22 24 26 28 29 31 31
23 24 23 23 22 22 21 19 18 17 17 17 17 14 12 12 13 11 9 8 7 6 6 7 8 9 10 11 12 13 14 16 17 18 20 22 23 25 28 30 31 32 33
23 25 24 23 23 22 22 20 19 17 18 17 16 14 13 14 12 11 9 7 6 6 6 7 8 9 10 11 12 14 15 17 18 19 21 23 24 27 29 31 33 35 36
24 25 24 24 23 23 22 21 20 19 18 17 16 15 15 14 13 11 8 6 5 5 6 7 7 8 10 11 12 14 16 17 19 20 22 24 26 28 30 33 36 37 37
23 24 25 24 23 23 23 21 20 19 19 17 16 15 15 14 13 10 7 5 5 5 6 6 7 8 10 11 13 14 16 18 20 21 23 25 27 29 31 34 37 38 38
23 24 25 25 24 23 23 22 21 20 19 18 16 16 16 15 13 9 7 4 5 5 5 6 7 8 10 11 13 15 16 18 20 22 23 26 28 30 32 34 37 38 38
23 24 26 25 25 24 24 23 21 21 19 18 17 17 17 15 13 10 7 4 4 5 5 5 7 8 10 12 13 14 16 18 20 22 24 26 28 30 32 34 36 38 38
24 24 25 26 25 25 24 23 22 21 20 18 18 18 18 15 13 10 7 4 3 4 4 6 7 9 10 11 13 14 16 18 20 22 24 26 27 29 31 34 36 37 38
25 25 25 26 26 26 24 24 23 22 20 19 19 18 18 16 14 11 7 4 3 3 4 5 7 9 10 11 12 14 16 18 19 22 24 25 27 29 31 33 35 36 37
24 25 25 26 27 26 26 24 24 23 21 20 20 19 18 17 15 12 8 5 4 2 3 5 7 8 10 11 12 14 15 17 19 22 23 25 26 28 30 32 34 36 36
24 26 26 26 27 28 27 26 24 24 22 22 21 20 19 18 15 13 9 6 4 2 2 4 6 8 9 11 12 13 15 17 19 21 23 25 26 27 29 31 33 35 35
25 25 27 27 27 28 28 27 26 24 23 23 22 21 20 18 16 13 10 8 5 3 1 3 5 7 9 10 12 13 15 16 18 21 23 24 25 26 28 30 32 34 34
Wind_Direction
226 223 223 223 226 228 232 235 241 247 254 256 261 263 258 257 254 253 247 241 236 237 237 241 244 251 267 272 260 251 246 239 237 255 243 247 259 261 267 272 277 277 275
211 209 213 215 219 222 227 234 242 252 258 260 260 260 258 256 255 249 232 229 229 225 234 244 248 257 265 256 259 251 236 236 248 252 251 267 270 272 277 280 280 278 277
201 204 206 209 214 220 226 233 244 255 259 260 255 255 256 253 244 226 213 214 214 223 233 243 255 257 262 260 258 247 231 236 258 260 266 277 279 281 284 282 282 283 283
200 204 205 208 212 216 223 231 243 244 247 238 237 252 252 236 220 202 196 199 210 225 240 254 263 262 261 251 252 224 221 244 259 265 282 285 286 288 288 287 288 287 288
202 201 202 204 207 209 212 214 221 220 196 182 207 186 174 179 188 187 185 192 203 222 250 267 269 252 236 239 210 221 247 256 263 282 286 289 291 293 294 294 292 293 293
198 198 198 198 199 198 199 201 200 182 171 158 125 126 139 142 143 152 166 173 177 181 253 180 161 152 151 155 175 237 264 262 283 289 293 295 297 299 299 298 297 295 295
195 195 193 192 191 190 190 186 176 168 158 148 132 126 121 129 135 140 143 143 138 121 109 105 107 111 116 116 71 357 323 307 304 302 304 305 306 305 303 303 302 300 299
193 190 189 188 186 184 178 170 165 162 154 142 134 128 124 123 124 123 125 122 117 113 110 103 100 97 90 79 51 19 350 334 326 321 317 316 315 314 314 310 307 305 304
189 187 186 185 182 179 171 163 155 150 145 139 134 127 125 124 124 121 121 117 112 107 104 98 90 82 72 50 20 3 348 337 336 334 332 330 329 327 324 317 316 311 309
186 183 183 181 178 174 167 159 152 147 145 141 136 131 129 129 127 123 122 113 110 107 100 91 79 62 45 26 8 356 351 341 336 335 333 333 331 330 329 327 322 319 315
182 179 179 178 175 172 167 162 158 151 148 145 142 137 135 132 132 125 121 116 114 107 97 83 60 45 29 15 6 359 355 349 348 344 341 338 337 335 333 331 327 322 318
179 178 178 177 175 172 169 165 161 157 153 148 146 143 140 136 131 125 122 119 115 104 86 64 46 33 21 14 7 6 4 1 356 352 348 345 342 338 335 333 330 326 323
177 176 176 175 174 173 169 166 163 161 158 155 152 150 144 140 133 128 125 120 111 95 73 56 43 31 24 21 20 17 14 7 2 356 350 345 343 339 338 334 332 327 323
177 175 176 175 174 173 172 170 167 165 162 159 155 151 148 143 137 134 128 119 105 87 67 49 38 32 30 28 26 24 16 7 3 358 354 350 345 343 341 338 335 332 327
178 176 176 176 174 173 173 171 169 167 164 162 159 156 153 148 144 139 132 120 103 84 62 45 38 37 38 35 28 21 15 9 4 359 356 352 349 346 345 342 339 336 333
178 177 177 176 176 175 173 170 169 167 165 162 161 160 157 151 146 140 131 118 102 81 55 47 46 45 41 33 25 18 12 7 3 359 356 354 352 350 348 346 344 342 339
179 177 177 177 176 175 174 172 169 165 165 165 164 162 158 154 149 141 131 117 95 69 53 53 54 45 36 28 20 15 11 7 3 2 359 357 355 353 352 351 349 347 344
180 178 179 178 177 176 176 174 171 169 166 165 165 163 160 156 152 144 133 114 83 64 57 62 52 39 30 23 18 14 9 7 4 2 1 360 358 357 356 355 353 351 350
181 182 181 179 179 177 177 175 173 172 170 168 166 165 164 160 156 148 137 114 84 68 66 60 44 32 25 18 14 11 8 6 4 3 3 1 1 360 359 358 357 357 357
183 183 182 180 180 179 178 177 175 175 173 173 171 170 167 165 162 157 145 119 85 71 67 56 37 26 19 15 12 9 7 6 5 5 4 3 2 2 2 2 2 3 2
185 184 184 183 182 182 181 180 179 178 178 177 176 175 173 171 168 163 153 128 93 74 62 45 30 21 15 12 9 8 7 6 6 6 6 5 5 5 6 6 6 6 6
188 186 186 186 185 185 184 183 183 182 181 180 178 177 177 177 174 170 163 140 106 76 57 39 25 17 13 10 9 8 8 7 8 7 7 7 8 8 8 8 9 9 10
190 189 189 189 189 187 187 187 186 185 185 184 182 180 181 181 180 178 173 157 131 89 57 35 23 17 14 12 10 10 9 8 9 9 9 9 10 10 11 11 11 12 13
192 193 192 191 191 190 190 189 189 188 188 186 185 185 184 184 184 183 180 172 156 114 57 30 21 18 15 13 11 10 10 11 11 11 11 11 12 12 12 13 14 15 16
195 195 195 193 193 193 192 191 191 190 190 188 188 187 187 187 187 188 186 182 173 150 69 30 21 18 15 14 13 13 12 13 13 13 13 13 13 14 15 16 16 17 19
198 198 197 196 195 195 194 193 192 192 191 190 190 190 190 190 190 189 190 187 182 170 118 37 22 20 18 16 16 15 15 15 15 14 14 14 15 15 16 17 18 19 21